Time,TemperatureF,DewpointF,PressureIn,WindDirection,WindDirectionDegrees,WindSpeedMPH,WindSpeedGustMPH,Humidity,HourlyPrecipIn,Conditions,Clouds,dailyrainin,SolarRadiationWatts/m^2,SoftwareType,DateUTC
2013-05-23 00:00:00,47.0,23.0,-100.00,NW,308,0.0,17.0,38,0.00,,,0.00,0.000000,,2013-05-23 07:00:00,
2013-05-23 00:22:00,47.0,23.0,-100.00,NW,308,0.0,17.0,38,0.00,,,0.00,0.000000,,2013-05-23 07:22:00,
2013-05-23 00:32:00,47.0,23.0,-100.00,NW,308,0.0,17.0,38,0.00,,,0.00,0.000000,,2013-05-23 07:32:00,
2013-05-23 00:59:00,47.0,23.0,-100.00,NW,308,0.0,17.0,38,0.00,,,0.00,0.000000,,2013-05-23 07:59:00,
2013-05-23 01:00:00,48.0,23.0,-100.00,SW,220,5.0,17.0,37,-99.99,,,0.00,0.000000,,2013-05-23 08:00:00,
2013-05-23 01:22:00,48.0,23.0,-100.00,SW,220,5.0,17.0,37,-99.99,,,0.00,0.000000,,2013-05-23 08:22:00,
2013-05-23 01:32:00,48.0,23.0,-100.00,SW,220,5.0,17.0,37,-99.99,,,0.00,0.000000,,2013-05-23 08:32:00,
2013-05-23 01:42:00,48.0,23.0,-100.00,SW,220,5.0,17.0,37,-99.99,,,0.00,0.000000,,2013-05-23 08:42:00,
2013-05-23 01:52:00,48.0,23.0,-100.00,SW,220,5.0,17.0,37,-99.99,,,0.00,0.000000,,2013-05-23 08:52:00,
2013-05-23 02:00:00,49.0,20.0,-100.00,West,281,4.0,18.0,32,-99.99,,,0.00,0.000000,,2013-05-23 09:00:00,
2013-05-23 02:22:00,49.0,20.0,-100.00,West,281,4.0,18.0,32,-99.99,,,0.00,0.000000,,2013-05-23 09:22:00,
2013-05-23 02:33:00,49.0,20.0,-100.00,West,281,4.0,18.0,32,-99.99,,,0.00,0.000000,,2013-05-23 09:33:00,
2013-05-23 02:42:00,49.0,20.0,-100.00,West,281,4.0,18.0,32,-99.99,,,0.00,0.000000,,2013-05-23 09:42:00,
2013-05-23 02:53:00,49.0,20.0,-100.00,West,281,4.0,18.0,32,-99.99,,,0.00,0.000000,,2013-05-23 09:53:00,
2013-05-23 03:00:00,45.0,17.0,-100.00,NW,317,2.0,8.0,32,0.00,,,0.00,0.000000,,2013-05-23 10:00:00,
2013-05-23 03:22:00,45.0,17.0,-100.00,NW,317,2.0,8.0,32,0.00,,,0.00,0.000000,,2013-05-23 10:22:00,
2013-05-23 03:32:00,45.0,17.0,-100.00,NW,317,2.0,8.0,32,0.00,,,0.00,0.000000,,2013-05-23 10:32:00,
2013-05-23 03:42:00,45.0,17.0,-100.00,NW,317,2.0,8.0,32,0.00,,,0.00,0.000000,,2013-05-23 10:42:00,
2013-05-23 03:52:00,45.0,17.0,-100.00,NW,317,2.0,8.0,32,0.00,,,0.00,0.000000,,2013-05-23 10:52:00,
2013-05-23 04:00:00,44.0,15.0,-100.00,South,169,0.0,7.0,30,-99.99,,,0.00,0.000000,,2013-05-23 11:00:00,
2013-05-23 04:22:00,44.0,15.0,-100.00,South,169,0.0,7.0,30,-99.99,,,0.00,0.000000,,2013-05-23 11:22:00,
2013-05-23 04:32:00,44.0,15.0,-100.00,South,169,0.0,7.0,30,-99.99,,,0.00,0.000000,,2013-05-23 11:32:00,
2013-05-23 04:42:00,44.0,15.0,-100.00,South,169,0.0,7.0,30,-99.99,,,0.00,0.000000,,2013-05-23 11:42:00,
2013-05-23 04:52:00,44.0,15.0,-100.00,South,169,0.0,7.0,30,-99.99,,,0.00,0.000000,,2013-05-23 11:52:00,
2013-05-23 05:00:00,45.0,14.0,-100.00,SE,141,0.0,8.0,28,-99.99,,,0.00,0.000000,,2013-05-23 12:00:00,
2013-05-23 05:22:00,45.0,14.0,-100.00,SE,141,0.0,8.0,28,-99.99,,,0.00,0.000000,,2013-05-23 12:22:00,
2013-05-23 05:32:00,45.0,14.0,-100.00,SE,141,0.0,8.0,28,-99.99,,,0.00,0.000000,,2013-05-23 12:32:00,
2013-05-23 05:42:00,45.0,14.0,-100.00,SE,141,0.0,8.0,28,-99.99,,,0.00,0.000000,,2013-05-23 12:42:00,
2013-05-23 05:52:00,45.0,14.0,-100.00,SE,141,0.0,8.0,28,-99.99,,,0.00,0.000000,,2013-05-23 12:52:00,
2013-05-23 06:00:00,44.0,13.0,-100.00,ENE,72,0.0,5.0,28,0.00,,,0.00,0.000000,,2013-05-23 13:00:00,
2013-05-23 06:22:00,44.0,13.0,-100.00,ENE,72,0.0,5.0,28,0.00,,,0.00,0.000000,,2013-05-23 13:22:00,
2013-05-23 06:32:00,44.0,13.0,-100.00,ENE,72,0.0,5.0,28,0.00,,,0.00,0.000000,,2013-05-23 13:32:00,
2013-05-23 06:42:00,44.0,13.0,-100.00,ENE,72,0.0,5.0,28,0.00,,,0.00,0.000000,,2013-05-23 13:42:00,
2013-05-23 06:52:00,44.0,13.0,-100.00,ENE,72,0.0,5.0,28,0.00,,,0.00,0.000000,,2013-05-23 13:52:00,
2013-05-23 07:00:00,41.0,14.0,-100.00,NW,320,0.0,4.0,33,-99.99,,,0.00,2.000000,,2013-05-23 14:00:00,
2013-05-23 07:21:00,41.0,14.0,-100.00,NW,320,0.0,4.0,33,-99.99,,,0.00,2.000000,,2013-05-23 14:21:00,
2013-05-23 07:32:00,41.0,14.0,-100.00,NW,320,0.0,4.0,33,-99.99,,,0.00,2.000000,,2013-05-23 14:32:00,
2013-05-23 08:00:00,51.0,18.0,-100.00,SE,135,0.0,3.0,27,-99.99,,,0.00,122.000000,,2013-05-23 15:00:00,
2013-05-23 08:22:00,51.0,18.0,-100.00,SE,135,0.0,3.0,27,-99.99,,,0.00,122.000000,,2013-05-23 15:22:00,
2013-05-23 08:33:00,51.0,18.0,-100.00,SE,135,0.0,3.0,27,-99.99,,,0.00,122.000000,,2013-05-23 15:33:00,
2013-05-23 08:43:00,51.0,18.0,-100.00,SE,135,0.0,3.0,27,-99.99,,,0.00,122.000000,,2013-05-23 15:43:00,
2013-05-23 08:53:00,51.0,18.0,-100.00,SE,135,0.0,3.0,27,-99.99,,,0.00,122.000000,,2013-05-23 15:53:00,
2013-05-23 09:00:00,55.0,15.0,-100.00,WSW,256,6.0,12.0,20,-99.99,,,0.00,422.000000,,2013-05-23 16:00:00,
2013-05-23 09:23:00,55.0,15.0,-100.00,WSW,256,6.0,12.0,20,-99.99,,,0.00,422.000000,,2013-05-23 16:23:00,
2013-05-23 09:34:00,55.0,15.0,-100.00,WSW,256,6.0,12.0,20,-99.99,,,0.00,422.000000,,2013-05-23 16:34:00,
2013-05-23 09:42:00,55.0,15.0,-100.00,WSW,256,6.0,12.0,20,-99.99,,,0.00,422.000000,,2013-05-23 16:42:00,
2013-05-23 09:52:00,55.0,15.0,-100.00,WSW,256,6.0,12.0,20,-99.99,,,0.00,422.000000,,2013-05-23 16:52:00,
2013-05-23 10:00:00,56.0,14.0,-100.00,West,268,12.0,21.0,19,0.00,,,0.00,707.000000,,2013-05-23 17:00:00,
2013-05-23 10:23:00,56.0,14.0,-100.00,West,268,12.0,21.0,19,0.00,,,0.00,707.000000,,2013-05-23 17:23:00,
2013-05-23 10:33:00,56.0,14.0,-100.00,West,268,12.0,21.0,19,0.00,,,0.00,707.000000,,2013-05-23 17:33:00,
2013-05-23 10:43:00,56.0,14.0,-100.00,West,268,12.0,21.0,19,0.00,,,0.00,707.000000,,2013-05-23 17:43:00,
2013-05-23 10:52:00,56.0,14.0,-100.00,West,268,12.0,21.0,19,0.00,,,0.00,707.000000,,2013-05-23 17:52:00,
2013-05-23 11:22:00,57.0,15.0,-100.00,West,280,16.0,31.0,19,-99.99,,,0.00,966.000000,,2013-05-23 18:22:00,
2013-05-23 11:32:00,57.0,15.0,-100.00,West,280,16.0,31.0,19,-99.99,,,0.00,966.000000,,2013-05-23 18:32:00,
2013-05-23 11:42:00,57.0,15.0,-100.00,West,280,16.0,31.0,19,-99.99,,,0.00,966.000000,,2013-05-23 18:42:00,
2013-05-23 11:52:00,57.0,15.0,-100.00,West,280,16.0,31.0,19,-99.99,,,0.00,966.000000,,2013-05-23 18:52:00,
2013-05-23 12:00:00,61.0,20.0,-100.00,West,281,19.0,35.0,20,-99.99,,,0.00,1179.000000,,2013-05-23 19:00:00,
2013-05-23 12:22:00,61.0,20.0,-100.00,West,281,19.0,35.0,20,-99.99,,,0.00,1179.000000,,2013-05-23 19:22:00,
2013-05-23 12:32:00,61.0,20.0,-100.00,West,281,19.0,35.0,20,-99.99,,,0.00,1179.000000,,2013-05-23 19:32:00,
2013-05-23 12:42:00,61.0,20.0,-100.00,West,281,19.0,35.0,20,-99.99,,,0.00,1179.000000,,2013-05-23 19:42:00,
2013-05-23 12:52:00,61.0,20.0,-100.00,West,281,19.0,35.0,20,-99.99,,,0.00,1179.000000,,2013-05-23 19:52:00,
2013-05-23 13:00:00,61.0,20.0,-100.00,West,271,18.0,33.0,20,0.00,,,0.00,1317.000000,,2013-05-23 20:00:00,
2013-05-23 13:22:00,61.0,20.0,-100.00,West,271,18.0,33.0,20,0.00,,,0.00,1317.000000,,2013-05-23 20:22:00,
2013-05-23 13:32:00,61.0,20.0,-100.00,West,271,18.0,33.0,20,0.00,,,0.00,1317.000000,,2013-05-23 20:32:00,
2013-05-23 13:42:00,61.0,20.0,-100.00,West,271,18.0,33.0,20,0.00,,,0.00,1317.000000,,2013-05-23 20:42:00,
2013-05-23 13:52:00,61.0,20.0,-100.00,West,271,18.0,33.0,20,0.00,,,0.00,1317.000000,,2013-05-23 20:52:00,
2013-05-23 14:00:00,64.0,24.0,-100.00,West,272,16.0,34.0,22,-99.99,,,0.00,1382.000000,,2013-05-23 21:00:00,
2013-05-23 14:22:00,64.0,24.0,-100.00,West,272,16.0,34.0,22,-99.99,,,0.00,1382.000000,,2013-05-23 21:22:00,
2013-05-23 14:33:00,64.0,24.0,-100.00,West,272,16.0,34.0,22,-99.99,,,0.00,1382.000000,,2013-05-23 21:33:00,
2013-05-23 14:43:00,64.0,24.0,-100.00,West,272,16.0,34.0,22,-99.99,,,0.00,1382.000000,,2013-05-23 21:43:00,
2013-05-23 14:53:00,64.0,24.0,-100.00,West,272,16.0,34.0,22,-99.99,,,0.00,1382.000000,,2013-05-23 21:53:00,
2013-05-23 15:00:00,64.0,25.0,-100.00,West,260,17.0,30.0,23,0.00,,,-99.99,1363.000000,,2013-05-23 22:00:00,
2013-05-23 15:23:00,64.0,25.0,-100.00,West,260,17.0,30.0,23,0.00,,,-99.99,1363.000000,,2013-05-23 22:23:00,
2013-05-23 15:33:00,64.0,25.0,-100.00,West,260,17.0,30.0,23,0.00,,,-99.99,1363.000000,,2013-05-23 22:33:00,
2013-05-23 15:42:00,64.0,25.0,-100.00,West,260,17.0,30.0,23,0.00,,,-99.99,1363.000000,,2013-05-23 22:42:00,
2013-05-23 15:52:00,64.0,25.0,-100.00,West,260,17.0,30.0,23,0.00,,,-99.99,1363.000000,,2013-05-23 22:52:00,
2013-05-23 16:00:00,64.0,24.0,-100.00,WSW,257,13.0,29.0,22,0.00,,,0.00,1278.000000,,2013-05-23 23:00:00,
2013-05-23 16:22:00,64.0,24.0,-100.00,WSW,257,13.0,29.0,22,0.00,,,0.00,1278.000000,,2013-05-23 23:22:00,
2013-05-23 16:32:00,64.0,24.0,-100.00,WSW,257,13.0,29.0,22,0.00,,,0.00,1278.000000,,2013-05-23 23:32:00,
2013-05-23 16:42:00,64.0,24.0,-100.00,WSW,257,13.0,29.0,22,0.00,,,0.00,1278.000000,,2013-05-23 23:42:00,
2013-05-23 16:52:00,64.0,24.0,-100.00,WSW,257,13.0,29.0,22,0.00,,,0.00,1278.000000,,2013-05-23 23:52:00,
2013-05-23 17:00:00,65.0,25.0,-100.00,West,263,11.0,26.0,22,-99.99,,,0.00,1117.000000,,2013-05-24 00:00:00,
2013-05-23 17:22:00,65.0,25.0,-100.00,West,263,11.0,26.0,22,-99.99,,,0.00,1117.000000,,2013-05-24 00:22:00,
2013-05-23 17:32:00,65.0,25.0,-100.00,West,263,11.0,26.0,22,-99.99,,,0.00,1117.000000,,2013-05-24 00:32:00,
2013-05-23 17:42:00,65.0,25.0,-100.00,West,263,11.0,26.0,22,-99.99,,,0.00,1117.000000,,2013-05-24 00:42:00,
2013-05-23 17:52:00,65.0,25.0,-100.00,West,263,11.0,26.0,22,-99.99,,,0.00,1117.000000,,2013-05-24 00:52:00,
2013-05-23 18:00:00,65.0,26.0,-100.00,West,269,11.0,26.0,23,0.00,,,-99.99,892.000000,,2013-05-24 01:00:00,
2013-05-23 18:22:00,65.0,26.0,-100.00,West,269,11.0,26.0,23,0.00,,,-99.99,892.000000,,2013-05-24 01:22:00,
2013-05-23 18:32:00,65.0,26.0,-100.00,West,269,11.0,26.0,23,0.00,,,-99.99,892.000000,,2013-05-24 01:32:00,
2013-05-23 18:42:00,65.0,26.0,-100.00,West,269,11.0,26.0,23,0.00,,,-99.99,892.000000,,2013-05-24 01:42:00,
2013-05-23 18:52:00,65.0,26.0,-100.00,West,269,11.0,26.0,23,0.00,,,-99.99,892.000000,,2013-05-24 01:52:00,
2013-05-23 19:00:00,61.0,26.0,-100.00,WNW,289,16.0,30.0,26,0.00,,,0.00,273.000000,,2013-05-24 02:00:00,
2013-05-23 19:22:00,61.0,26.0,-100.00,WNW,289,16.0,30.0,26,0.00,,,0.00,273.000000,,2013-05-24 02:22:00,
2013-05-23 19:32:00,61.0,26.0,-100.00,WNW,289,16.0,30.0,26,0.00,,,0.00,273.000000,,2013-05-24 02:32:00,
2013-05-23 19:42:00,61.0,26.0,-100.00,WNW,289,16.0,30.0,26,0.00,,,0.00,273.000000,,2013-05-24 02:42:00,
2013-05-23 19:52:00,61.0,26.0,-100.00,WNW,289,16.0,30.0,26,0.00,,,0.00,273.000000,,2013-05-24 02:52:00,
2013-05-23 20:00:00,57.0,24.0,-100.00,West,265,11.0,29.0,28,0.00,,,0.00,53.000000,,2013-05-24 03:00:00,
2013-05-23 20:22:00,57.0,24.0,-100.00,West,265,11.0,29.0,28,0.00,,,0.00,53.000000,,2013-05-24 03:22:00,
2013-05-23 20:33:00,57.0,24.0,-100.00,West,265,11.0,29.0,28,0.00,,,0.00,53.000000,,2013-05-24 03:33:00,
2013-05-23 20:42:00,57.0,24.0,-100.00,West,265,11.0,29.0,28,0.00,,,0.00,53.000000,,2013-05-24 03:42:00,
2013-05-23 20:53:00,57.0,24.0,-100.00,West,265,11.0,29.0,28,0.00,,,0.00,53.000000,,2013-05-24 03:53:00,
2013-05-23 21:00:00,55.0,26.0,-100.00,West,280,14.0,27.0,33,-99.99,,,0.00,18.000000,,2013-05-24 04:00:00,
2013-05-23 21:23:00,55.0,26.0,-100.00,West,280,14.0,27.0,33,-99.99,,,0.00,18.000000,,2013-05-24 04:23:00,
2013-05-23 21:33:00,55.0,26.0,-100.00,West,280,14.0,27.0,33,-99.99,,,0.00,18.000000,,2013-05-24 04:33:00,
2013-05-23 21:42:00,55.0,26.0,-100.00,West,280,14.0,27.0,33,-99.99,,,0.00,18.000000,,2013-05-24 04:42:00,
2013-05-23 21:53:00,55.0,26.0,-100.00,West,280,14.0,27.0,33,-99.99,,,0.00,18.000000,,2013-05-24 04:53:00,
2013-05-23 22:00:00,52.0,25.0,-100.00,West,277,10.0,25.0,35,0.00,,,0.00,0.000000,,2013-05-24 05:00:00,
2013-05-23 22:22:00,52.0,25.0,-100.00,West,277,10.0,25.0,35,0.00,,,0.00,0.000000,,2013-05-24 05:22:00,
2013-05-23 22:32:00,52.0,25.0,-100.00,West,277,10.0,25.0,35,0.00,,,0.00,0.000000,,2013-05-24 05:32:00,
2013-05-23 22:42:00,52.0,25.0,-100.00,West,277,10.0,25.0,35,0.00,,,0.00,0.000000,,2013-05-24 05:42:00,
2013-05-23 22:52:00,52.0,25.0,-100.00,West,277,10.0,25.0,35,0.00,,,0.00,0.000000,,2013-05-24 05:52:00,
2013-05-23 23:00:00,53.0,25.0,-100.00,ESE,115,1.0,27.0,34,0.00,,,0.00,0.000000,,2013-05-24 06:00:00,
2013-05-23 23:22:00,53.0,25.0,-100.00,ESE,115,1.0,27.0,34,0.00,,,0.00,0.000000,,2013-05-24 06:22:00,
2013-05-23 23:32:00,53.0,25.0,-100.00,ESE,115,1.0,27.0,34,0.00,,,0.00,0.000000,,2013-05-24 06:32:00,
2013-05-23 23:42:00,53.0,25.0,-100.00,ESE,115,1.0,27.0,34,0.00,,,0.00,0.000000,,2013-05-24 06:42:00,
2013-05-23 23:52:00,53.0,25.0,-100.00,ESE,115,1.0,27.0,34,0.00,,,0.00,0.000000,,2013-05-24 06:52:00,